Regional Weather Roundup
Issued by NWS

Home | Current Version | Previous Version | Graphics & Text | Print | Product List | Glossary On
Versions: 1 2 3 4 5 6 7 8 9 10 11 12 13 14 15 16 17 18 19 20 21 22 23 24 25 26 27 28 29 30 31 32 33 34 35 36 37 38 39 40 41 42 43 44 45 46 47 48 49 50
000
ASUS43 KLMK 230210
RWRKY
KENTUCKY REGIONAL WEATHER ROUNDUP
NATIONAL WEATHER SERVICE LOUISVILLE KY
1000 PM EDT TUE AUG 22 2017

NOTE "FAIR" INDICATES FEW OR NO CLOUDS BELOW 12,000 FEET
WITH NO SIGNIFICANT WEATHER AND/OR OBSTRUCTIONS TO VISIBILITY.

KYZ001>023-026-027-061>063-070>075-230300-
WESTERN AND SOUTH CENTRAL KENTUCKY

CITY           SKY/WX    TMP DP  RH WIND       PRES   REMARKS
PADUCAH        CLEAR     75  67  76 NW7       29.98R
HENDERSON      NOT AVBL
OWENSBORO      CLOUDY    73  72  96 SW3       29.97R FOG
HOPKINSVILLE   MOCLDY    73  71  96 W3        29.98R
BOWLING GREEN  CLOUDY    75  73  93 NW3       29.97R
GLASGOW        MOCLDY    73  73 100 CALM      29.97S
$$

KYZ024-025-028>034-038-045-046-053-230300-
NORTH CENTRAL KENTUCKY

CITY           SKY/WX    TMP DP  RH WIND       PRES   REMARKS
LOUISVILLE/SDF CLOUDY    73  71  93 W6        29.95R
LOUISVILLE/LOU CLOUDY    73  72  96 CALM      29.96R
FORT KNOX      CLOUDY    70  70 100 W5        29.96R
$$

KYZ035>037-039>044-047>052-055>060-089>105-230300-
NORTHEAST KENTUCKY

CITY           SKY/WX    TMP DP  RH WIND       PRES   REMARKS
LEXINGTON      CLOUDY    72  69  90 SW5       29.97S
COVINGTON      CLOUDY    72  72 100 SW3       29.94R
FRANKFORT      CLOUDY    72  68  87 SW3       29.95R
$$

KYZ054-064>069-076>088-106>120-230300-
SOUTHEAST KENTUCKY

CITY           SKY/WX    TMP DP  RH WIND       PRES   REMARKS
JACKSON        LGT RAIN  71  69  93 VRB3      29.99S
LONDON         RAIN      72  69  90 N16       29.99R FOG
SOMERSET       TSTM      70  70 100 N7        29.99R
MIDDLESBORO    CLOUDY    72  72 100 CALM      29.98F
MONTICELLO     TSTM      72  72 100 NW13G20   30.02R
$$





USA.gov is the U.S. government's official web portal to all federal, state and local government web resources and services.